Regional Weather Roundup
Issued by NWS

Home | Current Version | Previous Version | Graphics & Text | Print | Product List | Glossary On
Versions: 1 2 3 4 5 6 7 8 9 10 11 12 13 14 15 16 17 18 19 20 21 22 23 24 25 26 27 28 29 30 31 32 33 34 35 36 37 38 39 40 41 42 43 44 45 46 47 48 49 50
000
ASUS45 KTFX 301204
RWRMT
MONTANA HOURLY WEATHER ROUNDUP
NATIONAL WEATHER SERVICE GREAT FALLS MT
604 AM MDT SAT AUG 30 2014

NOTE: "FAIR" INDICATES FEW OR NO CLOUDS BELOW 12000 FEET WITH NO
SIGNIFICANT WEATHER AND/OR OBSTRUCTIONS TO VISIBILITY.

* THESE STATIONS ARE NOT UNDER NWS QUALITY CONTROL. THEY DO NOT
   REPORT WEATHER SUCH AS PRECIPITATION OR FOG.

MTZ001>007-043-301300-
WEST OF THE DIVIDE
CITY           SKY/WX    TMP DP  RH WIND       PRES   REMARKS
KALISPELL      MOCLDY    61  46  58 S10       29.79F
MISSOULA       CLOUDY    63  46  54 W5        29.89F
BUTTE          CLOUDY    52  46  80 SW3       30.00R
MULLAN PASS    MOCLDY    46  37  71 VRB3      29.96S
* LINCOLN      N/A       60  40  48 W6G13      N/A
* LOOKOUT PASS N/A       53  40  62 E1G6       N/A
* POLSON       N/A       57  44  62 S3         N/A
* RONAN APT    MOCLDY    61  46  58 SE6        N/A
* SEELEY LAKE  N/A       52  49  90 E2         N/A
* THOMP F APT  PTCLDY    55  43  64 N5         N/A
$$

MTZ008-052>055-301300-
SOUTHWEST MONTANA
CITY           SKY/WX    TMP DP  RH WIND       PRES   REMARKS
BOZEMAN        LGT RAIN  59  48  67 W14       29.95R
DILLON         LGT RAIN  54  52  93 S14       29.96R
W YELLOWSTONE  CLOUDY    48  46  93 W5        30.03R
* THREE FORKS  CLOUDY    61  61 100 NW7        N/A
* BOULDER HILL N/A       52  41  66 SW1        N/A
* MONIDA PASS  N/A       51  48  90 NW22G35    N/A
* RAYNOLDS PAS N/A       54  10  17 NE6G11     N/A
* WHITEHALL    N/A       55  50  83 W2G17      N/A
* WISE RIVER   N/A       51  45  80 W6G15      N/A
$$

MTZ009>010-012-014-046-048-049-054-301300-
EAST SLOPES AND CENTRAL MONTANA
CITY           SKY/WX    TMP DP  RH WIND       PRES   REMARKS
CUT BANK       CLOUDY    61  39  44 W9        29.79R
GREAT FALLS    CLOUDY    61  41  48 SW8       29.82R
HELENA         LGT RAIN  64  43  47 W13G20    29.91R
MALMSTROM AFB  CLOUDY    64  39  40 SW10      29.83R
* CONRAD       CLOUDY    63  45  52 SW7        N/A
* EAST GLACIER N/A       59  38  46 W16        N/A
* MONARCH      N/A       55  43  64 SW6        N/A
* PENDROY      N/A       58  36  44 W4G9       N/A
* ROGERS PASS  N/A       56  39  53 NE4G12     N/A
* SAINT MARY   N/A       61  38  43 SW8G18     N/A
* SWEET GRASS  N/A       57  40  53 S8         N/A
$$

MTZ011-013-016-021-035-040-045-047-050-051-301300-
NORTH CENTRAL MONTANA
CITY           SKY/WX    TMP DP  RH WIND       PRES   REMARKS
HAVRE          CLOUDY    66  50  56 SW8       29.74R
LEWISTOWN      CLOUDY    61  52  72 CALM      29.81R
* CHESTER      N/A       66  41  40 W11G25     N/A
* DENTON       N/A       59  52  78 S8         N/A
* GEYSER       N/A       60  46  60 W13        N/A
* JUDITH GAP   N/A       57  54  90 S2         N/A
* LOMA         N/A       61  54  78 N/A        N/A
$$

MTZ017>020-022>027-061-062-301300-
NORTHEAST MONTANA
CITY           SKY/WX    TMP DP  RH WIND       PRES   REMARKS
GLASGOW        MOCLDY    55  54  96 E13       29.77S
GLENDIVE       FAIR      54  52  93 CALM      29.86F
JORDAN         MOCLDY    59  52  78 SE8       29.78S
SIDNEY         CLEAR     54  50  86 SE3       29.87F
WOLF POINT     CLEAR     57  52  83 NE12      29.79F
* BEAVER HILL  N/A       54  52  93 SE20       N/A
* CIRCLE       N/A       55  52  90 N/A        N/A
* LINDSAY DVD  N/A       49  48  96 NE6        N/A
* NAVAJO       N/A       53  51  93 SE9        N/A
$$

MTZ028>042-056>058-301300-
SOUTHCENTRAL AND SOUTHEAST MONTANA
CITY           SKY/WX    TMP DP  RH WIND       PRES   REMARKS
BAKER          CLEAR     54  52  93 SE15      29.89F
BILLINGS       CLOUDY    61  54  78 SW7       29.80F
LIVINGSTON     LGT RAIN  63  48  58 W21G26    29.87R
MILES CITY     CLEAR     61  52  72 SE15      29.78F
* LAUREL APT   CLOUDY    57  50  78 N/A        N/A
* ROUNDUP APT  CLOUDY    57  52  83 N/A        N/A
* ALZADA       N/A       52  50  93 E5         N/A
* HYSHAM       N/A       62  45  54 W6         N/A
* LAME DEER    N/A       61  49  65 S15        N/A
* REED POINT   N/A       59  57  93 SW2        N/A
* ROSCOE HILL  N/A       67  33  28 S8         N/A
$$

REGIONAL REPORTS...DAKOTAS
CITY           SKY/WX    TMP DP  RH WIND       PRES   REMARKS
WILLISTON      CLEAR     57  52  83 SE8       29.88F
DICKINSON      MOCLDY    52  50  93 SE10      29.93S
BEACH          N/A       52  52 100 SE14      29.89F
CROSBY         CLEAR     54  54 100 S10G16    29.88F
TIOGA          FOG       45  45 100 SE5       29.93F VSB 2 1/2
WATFORD CITY   CLEAR     48  48 100 CALM      29.88F
BISMARCK       FOG       46  46 100 CALM      29.98S VSB M1/4
GRAND FORKS    CLEAR     48  46  93 NW6       29.94F
FARGO          CLOUDY    55  52  90 N9        29.92R
BUFFALO SD     CLEAR     54  52  93 SE10      29.87S
RAPID CITY     FOG       52  52 100 SE6       29.95F
$$

REGIONAL REPORTS...WYOMING/IDAHO/WASHINGTON
CITY           SKY/WX    TMP DP  RH WIND       PRES   REMARKS
GILLETTE       CLEAR     57  52  83 S16       29.91F
SHERIDAN       CLEAR     46  43  89 CALM      29.84F
CODY           CLOUDY    66  45  47 SW7       29.90F
YELLOWSTONE LA MOCLDY    45  43  93 CALM      30.11F
SALMON         CLOUDY    61  48  62 E5        29.91F
MULLAN PASS    MOCLDY    46  37  71 VRB3      29.96S
SAND POINT     MOCLDY    55  43  64 SW5       29.83R
SPOKANE        CLOUDY    55  43  64 SW12      29.86S
$$

REGIONAL REPORTS...SASKATCHEWAN
CITY           SKY/WX    TMP DP  RH WIND       PRES   REMARKS
SWIFT CURRENT  CLOUDY    59  52  78 S17G23    29.67F

$$



USA.gov is the U.S. government's official web portal to all federal, state and local government web resources and services.